Weather History for Gallivare, Sweden

Change the Weather History Date:

Sunday, April 29, 2012

  Actual Average Record
Temperature  
Mean Temperature 37 °F -  
Max Temperature 44 °F - - ()
Min Temperature 28 °F - - ()
Degree Days  
Heating Degree Days 28    
Moisture  
Dew Point 21 °F    
Average Humidity 53    
Maximum Humidity 80    
Minimum Humidity 36    
Precipitation  
Precipitation 0.00 in - - ()
Sea Level Pressure  
Sea Level Pressure 30.01 in    
Wind  
Wind Speed 8 mph ()    
Max Wind Speed 12 mph    
Max Gust Speed -    
Visibility 6.2 miles    
Events      
T = Trace of Precipitation, MM = Missing Value Source: Averaged Metar Reports

Daily Weather History Graph

Daily Weather History Graph

Search for Another Location

Airport:

Trip Planner

Search our weather history database for the weather conditions in past years. The results will help you decide how hot, cold, wet, or windy it might be!

Date:

Astronomy

Apr. 29, 2012 Rise Set
Actual Time 3:50 AM CEST 9:20 PM CEST
Civil Twilight 2:21 AM CEST 10:52 PM CEST
Nautical Twilight Sun does not rise Sun does not rise
Astronomical Twilight Sun does not rise Sun does not rise
Moon 10:27 AM CEST (4/29) 3:03 AM CEST (4/29)
Length of Visible Light 20h 31m
Length of Day
17h 29m
Waxing Crescent, 50% of the Moon is Illuminated
Apr 29
Waxing Crescent
May 6
Full
May 12
Last Quarter
May 21
New
May 28
First Quarter

Hourly Weather History & Observations

Time (CEST) Temp. Windchill Dew Point Humidity Pressure Visibility Wind Dir Wind Speed Gust Speed Precip Events Conditions
12:20 AM 35.6 °F 27.5 °F 21.2 °F 56% 29.89 in 6.2 mi NW 11.5 mph - N/A   Mostly Cloudy
12:50 AM 33.8 °F 27.7 °F 21.2 °F 60% 29.92 in 6.2 mi NW 6.9 mph - N/A   Partly Cloudy
1:20 AM 33.8 °F 26.4 °F 21.2 °F 60% 29.92 in 6.2 mi West 9.2 mph - N/A   Unknown
1:50 AM 32.0 °F 24.2 °F 21.2 °F 64% 29.92 in 6.2 mi WNW 9.2 mph - N/A   Unknown
2:20 AM 30.2 °F 21.3 °F 23.0 °F 75% 29.92 in 6.2 mi West 10.4 mph - N/A   Unknown
2:50 AM 30.2 °F 20.8 °F 21.2 °F 69% 29.95 in 6.2 mi West 11.5 mph - N/A   Unknown
3:20 AM 30.2 °F 20.8 °F 21.2 °F 69% 29.95 in 6.2 mi West 11.5 mph - N/A   Unknown
3:50 AM 30.2 °F 21.3 °F 21.2 °F 69% 29.98 in 6.2 mi West 10.4 mph - N/A   Unknown
4:20 AM 30.2 °F 20.8 °F 21.2 °F 69% 29.98 in 6.2 mi West 11.5 mph - N/A   Unknown
4:50 AM 30.2 °F 20.8 °F 21.2 °F 69% 29.98 in 6.2 mi West 11.5 mph - N/A   Unknown
5:20 AM 30.2 °F 21.3 °F 21.2 °F 69% 29.98 in 6.2 mi West 10.4 mph - N/A   Unknown
5:50 AM 32.0 °F 24.2 °F 21.2 °F 64% 30.01 in 6.2 mi West 9.2 mph - N/A   Unknown
6:20 AM 32.0 °F 24.2 °F 21.2 °F 64% 30.01 in 6.2 mi West 9.2 mph - N/A   Unknown
6:50 AM 33.8 °F 27.0 °F 21.2 °F 60% 30.01 in 6.2 mi West 8.1 mph - N/A   Unknown
7:20 AM 35.6 °F 27.5 °F 19.4 °F 52% 30.01 in 6.2 mi NW 11.5 mph - N/A   Unknown
7:50 AM 35.6 °F 27.5 °F 19.4 °F 52% 30.01 in 6.2 mi NW 11.5 mph - N/A   Unknown
8:20 AM 37.4 °F 30.3 °F 17.6 °F 45% 30.04 in 6.2 mi NNW 10.4 mph - N/A   Unknown
8:50 AM 37.4 °F 30.3 °F 17.6 °F 45% 30.04 in 6.2 mi NNW 10.4 mph - N/A   Partly Cloudy
9:50 AM 41.0 °F 35.2 °F 15.8 °F 36% 30.04 in 6.2 mi NNW 9.2 mph - N/A   Unknown
10:20 AM 41.0 °F 35.2 °F 15.8 °F 36% 30.04 in 6.2 mi NNW 9.2 mph - N/A   Unknown
10:50 AM 41.0 °F 35.2 °F 15.8 °F 36% 30.04 in 6.2 mi NW 9.2 mph - N/A   Unknown
11:20 AM 41.0 °F 35.8 °F 15.8 °F 36% 30.04 in 6.2 mi NNW 8.1 mph - N/A   Unknown
11:50 AM 41.0 °F 37.1 °F 15.8 °F 36% 30.04 in 6.2 mi WNW 5.8 mph - N/A   Unknown
12:20 PM 42.8 °F - 17.6 °F 36% 30.04 in 6.2 mi Variable 2.3 mph - N/A   Partly Cloudy
12:50 PM 41.0 °F 35.2 °F 17.6 °F 39% 30.04 in 6.2 mi SW 9.2 mph - N/A   Scattered Clouds
1:20 PM 42.8 °F 37.0 °F 19.4 °F 39% 30.04 in 6.2 mi WSW 10.4 mph - N/A   Unknown
1:50 PM 42.8 °F 37.5 °F 21.2 °F 42% 30.06 in 6.2 mi West 9.2 mph - N/A   Partly Cloudy
2:20 PM 42.8 °F 38.0 °F 21.2 °F 42% 30.04 in - SW 8.1 mph - N/A   Clear
2:50 PM 42.8 °F 37.0 °F 19.4 °F 39% 30.04 in - West 10.4 mph - N/A   Clear
3:20 PM 44.6 °F 41.4 °F 19.4 °F 37% 30.04 in - West 5.8 mph - N/A   Clear
3:50 PM 42.8 °F 36.6 °F 19.4 °F 39% 30.04 in - WSW 11.5 mph - N/A   Clear
4:20 PM 42.8 °F 38.0 °F 23.0 °F 46% 30.04 in - WSW 8.1 mph - N/A   Clear
5:20 PM 42.8 °F 37.5 °F 24.8 °F 49% 30.04 in - West 9.2 mph - N/A   Clear
5:50 PM 42.8 °F 38.6 °F 24.8 °F 49% 30.04 in - West 6.9 mph - N/A   Clear
6:20 PM 42.8 °F 38.0 °F 24.8 °F 49% 30.04 in - West 8.1 mph - N/A   Clear
6:50 PM 41.0 °F 36.4 °F 23.0 °F 49% 30.04 in - West 6.9 mph - N/A   Clear
7:20 PM 42.8 °F 38.6 °F 23.0 °F 46% 30.04 in - West 6.9 mph - N/A   Clear
7:50 PM 41.0 °F 36.4 °F 23.0 °F 49% 30.04 in - West 6.9 mph - N/A   Clear
8:20 PM 41.0 °F - 23.0 °F 49% 30.04 in - Variable 2.3 mph - N/A   Clear
9:20 PM 37.4 °F 34.9 °F 23.0 °F 56% 30.04 in - West 3.5 mph - N/A   Clear
9:50 PM 35.6 °F 32.8 °F 23.0 °F 60% 30.04 in - WSW 3.5 mph - N/A   Clear
10:20 PM 32.0 °F 28.7 °F 23.0 °F 69% 30.04 in 6.2 mi WSW 3.5 mph - N/A   Unknown
10:50 PM 32.0 °F 27.5 °F 23.0 °F 69% 30.01 in 6.2 mi South 4.6 mph - N/A   Unknown
11:20 PM 30.2 °F - 23.0 °F 75% 30.01 in 6.2 mi Variable 1.2 mph - N/A   Unknown
11:50 PM 28.4 °F - 23.0 °F 80% 30.01 in 6.2 mi Variable 1.2 mph - N/A   Unknown